Time,TemperatureF,DewpointF,PressureIn,WindDirection,WindDirectionDegrees,WindSpeedMPH,WindSpeedGustMPH,Humidity,HourlyPrecipIn,Conditions,Clouds,dailyrainin,SoftwareType,DateUTC
2013-01-04 00:03:00,30.0,29.0,30.36,SW,226,3.0,0.0,98,0.00,,,0.01,,2013-01-04 05:03:00,
2013-01-04 00:12:00,30.0,29.0,30.36,SW,226,3.0,0.0,98,0.00,,,0.01,,2013-01-04 05:12:00,
2013-01-04 00:22:00,30.0,29.0,30.36,WSW,256,5.0,5.0,98,0.00,,,0.01,,2013-01-04 05:22:00,
2013-01-04 00:33:00,30.0,29.0,30.36,WSW,256,5.0,5.0,98,0.00,,,0.01,,2013-01-04 05:33:00,
2013-01-04 00:42:00,30.0,29.0,30.36,WSW,256,5.0,5.0,98,0.00,,,0.01,,2013-01-04 05:42:00,
2013-01-04 00:53:00,30.0,29.0,30.35,West,271,4.0,4.0,97,0.00,,,0.01,,2013-01-04 05:53:00,
2013-01-04 01:02:00,31.0,29.0,30.35,West,263,9.0,9.0,94,0.00,,,0.01,,2013-01-04 06:02:00,
2013-01-04 01:12:00,31.0,29.0,30.35,West,263,9.0,9.0,94,0.00,,,0.01,,2013-01-04 06:12:00,
2013-01-04 01:22:00,31.0,29.0,30.35,West,280,6.0,6.0,93,0.00,,,0.01,,2013-01-04 06:22:00,
2013-01-04 01:32:00,31.0,29.0,30.35,WNW,293,5.0,5.0,92,0.00,,,0.01,,2013-01-04 06:32:00,
2013-01-04 01:42:00,31.0,29.0,30.35,WNW,293,5.0,5.0,92,0.00,,,0.01,,2013-01-04 06:42:00,
2013-01-04 01:52:00,31.0,29.0,30.34,WNW,302,5.0,5.0,91,0.00,,,0.01,,2013-01-04 06:52:00,
2013-01-04 02:02:00,32.0,29.0,30.34,WNW,293,4.0,5.0,90,0.00,,,0.01,,2013-01-04 07:02:00,
2013-01-04 02:12:00,32.0,29.0,30.34,WNW,293,4.0,5.0,90,0.00,,,0.01,,2013-01-04 07:12:00,
2013-01-04 02:22:00,32.0,29.0,30.34,SW,236,4.0,0.0,90,0.00,,,0.01,,2013-01-04 07:22:00,
2013-01-04 02:32:00,32.0,29.0,30.33,South,176,1.0,0.0,90,0.00,,,0.01,,2013-01-04 07:32:00,
2013-01-04 02:42:00,32.0,29.0,30.33,South,176,1.0,0.0,90,0.00,,,0.01,,2013-01-04 07:42:00,
2013-01-04 02:52:00,31.0,29.0,30.34,SSW,210,1.0,0.0,91,0.00,,,0.01,,2013-01-04 07:52:00,
2013-01-04 03:02:00,31.0,29.0,-100.00,SW,214,0.0,0.0,91,0.00,,,0.01,,2013-01-04 08:02:00,
2013-01-04 03:12:00,31.0,29.0,-100.00,SW,214,0.0,0.0,91,0.00,,,0.01,,2013-01-04 08:12:00,
2013-01-04 03:22:00,31.0,29.0,30.33,SW,235,0.0,4.0,92,0.00,,,0.01,,2013-01-04 08:22:00,
2013-01-04 03:32:00,31.0,29.0,30.34,WSW,239,4.0,5.0,94,0.00,,,0.01,,2013-01-04 08:32:00,
2013-01-04 03:42:00,31.0,29.0,30.34,WSW,239,4.0,5.0,94,0.00,,,0.01,,2013-01-04 08:42:00,
2013-01-04 03:53:00,30.0,29.0,30.34,WSW,252,5.0,5.0,95,0.00,,,0.01,,2013-01-04 08:53:00,
2013-01-04 04:02:00,30.0,29.0,30.34,SW,215,5.0,5.0,95,0.00,,,0.01,,2013-01-04 09:02:00,